Tracking 31028 objects as of 17-Jul-2025
HD Live streaming from Space Station
objects crossing your sky now

STARLINK-5745

Track STARLINK-5745 now!
10-day predictions
STARLINK-5745 is classified as:


NORAD ID: 55575
Int'l Code: 2023-020G
Perigee: 565.4 km
Apogee: 567.1 km
Inclination: 43.0 °
Period: 95.8 minutes
Semi major axis: 6937 km
RCS: Unknown
Launch date: February 12, 2023
Source: United States (US)
Launch site: AIR FORCE EASTERN TEST RANGE (AFETR)
Your satellite tracking list
Your tracking list is empty




NASA's NSSDC Master Catalog

Two Line Element Set (TLE):
1 55575U 23020G   25198.07161701  .00000197  00000-0  29691-4 0  9990
2 55575  43.0024 205.1440 0001250 282.6674  77.4029 15.02534562133471
Source of the keplerian elements: AFSPC